Weather in Krasnoe

Russia / Lipetsk Oblast     52°43′44″N   39°09′52″E
temp.,
°C
wind,
m/s
gust,
m/s
humid.,
%
clouds,
%
prec.,
mm/h
press.,
hPa
HPBL,
m
3 march, wed
wed300:00−1nw5129396 0.3 1011363
03:000nnw6119185 0.3 1012724
06:00−2nw6139088 0.1 1013599
09:00−3nnw7118591 0.2 1016862
12:00−3nw698690 0.0 1017784
15:00−2nw698468 0.0 1018770
18:00−3w5109242 0.0 1017357
21:00−2w5109370 0.1 1017395
4 march, thu
thu400:00−3w61291100 0.0 1015512
03:00−2wsw61290100 0.1 1013580
06:00−1w81493100 0.0 1011661
09:00−1wsw8168995 0.0 1009498
12:00+1wsw8158682 0.0 1007729
15:00+1wsw7149184 0.0 1006844
18:00+1wsw61392100 0.0 1003714
21:00+1wsw61297100 0.1 1002504
5 march, fri
fri500:00+1wsw51199100 0.7 1001409
03:000wnw4998100 1.9 1001418
06:00−1wnw4798100 0.4 1003325
09:00−4n479497 0.8 1006387
12:00−3n349095 0.0 1008454
15:00−2nnw238395 0.0 1010581
18:00−5nnw1188100 0.0 101122
21:00−6nw1188100 0.0 101321
6 march, sat
sat600:00−6nnw2393100 0.0 101453
03:00−8n3691100 0.0 1015122
06:00−10n238669 0.0 101635
09:00−8nnw348834 0.0 1016160
12:00−6nw23806 0.0 1016306
15:00−5wnw23793 0.0 1016545
18:00−8nnw12870 0.0 101622
21:00−8n239532 0.1 101999
7 march, sun
sun700:00−10n239397 0.1 101965
03:00−12w349058 0.1 101987
06:00−11sw510880 0.0 1017267
09:00−7sw8168033 0.0 1014629
12:00−4sw111775100 0.0 10111057
15:00−3wsw111981100 0.1 10061235
18:00−3wsw122086100 0.1 10021254
21:00−2wsw122181100 0.2 10021280